Flag for U.S.A. Weather past 2 weeks in New Orleans, Louisiana, U.S.A.

Now
80 °F

Broken clouds.


Feels Like: 83 °F
Forecast: 77 / 86 °F
Wind: 17 mph from East

Location: Lakefront Airport

Current Time: May 25, 2015 at 5:26:03 PM

Latest Report: May 25, 2015 at 4:53 PM


Visibility: 10 mi

Pressure: 30.01 "Hg

Humidity: 69%

Dew point: 69 °F

Location of New OrleansLocation

Historic Weather in New Orleans — Graph

°F

New Orleans temperature yesterday

Maximum temperature yesterday: 90 °F (at 1:53 PM)
Minimum temperature yesterday: 77 °F (at 10:53 PM)
Average temperature yesterday: 84 °F

Past Weeks' High & Low Weather Summary

 TemperatureHumidityPressure
High90 °F (May 16, 1:53 PM)85% (May 11, 3:53 AM)30.20 "Hg (May 11, 3:53 AM)
Low70 °F (May 22, 7:53 AM)50% (May 22, 4:53 PM)29.94 "Hg (May 20, 5:53 PM)
Average82 °F70%30.07 "Hg
* Reported May 10 3:53 PM — May 25 3:53 PM, New Orleans, Weather by CustomWeather, © 2015

Note: Actual official high and low records may vary slightly from our data, if they occured in-between our weather recording intervals... More about our weather records

Advertising

New Orleans weather history for previous 24 hours

 ConditionsComfort  
Time TempWeatherWind HumidityBarometerVisibility
3:53 PM
Mon, May 25
78 °FLight rain. Overcast.13 mph76%30.04 "Hg10 mi
3:00 PM75 °FStrong thunderstorms. Mostly cloudy.26 mph82%30.08 "Hg2 mi
2:02 PM79 °FThunderstorms. Mostly cloudy.17 mph79%30.04 "Hg10 mi
1:00 PM90 °FBroken clouds.17 mph59%30.07 "Hg10 mi
11:53 AM88 °FBroken clouds.14 mph61%30.05 "Hg10 mi
10:53 AM85 °FBroken clouds.12 mph70%30.07 "Hg10 mi
9:53 AM85 °FPassing clouds.14 mph72%30.06 "Hg10 mi
8:53 AM81 °FPartly sunny.7 mph79%30.06 "Hg10 mi
7:53 AM79 °FLight rain. Partly sunny.5 mph77%30.05 "Hg10 mi
6:53 AM79 °FPassing clouds.10 mph77%30.03 "Hg10 mi
5:53 AM79 °FClear.8 mph84%30.01 "Hg10 mi
4:53 AM78 °FClear.5 mph79%30.02 "Hg10 mi
3:53 AM78 °FPassing clouds.6 mph79%30.01 "Hg10 mi
2:58 AM74 °FLight rain. Passing clouds.5 mph79%30.03 "Hg3 mi
1:53 AM79 °FLight rain. Partly cloudy.23 mph79%30.03 "Hg6 mi
12:53 AM81 °FPassing clouds.7 mph82%30.01 "Hg10 mi
11:53 PM
Sun, May 24
81 °FPartly cloudy.15 mph77%30.03 "Hg10 mi
10:53 PM77 °FLight rain. Mostly cloudy.18 mph79%30.04 "Hg8 mi
9:53 PM84 °FPartly cloudy.17 mph70%30.03 "Hg10 mi
8:53 PM84 °FClear.15 mph70%30.01 "Hg10 mi
7:53 PM84 °FSunny.15 mph67%30.00 "Hg10 mi
6:53 PM86 °FPassing clouds.18 mph63%29.99 "Hg10 mi
5:53 PM87 °FBroken clouds.17 mph59%29.99 "Hg10 mi
Weather by CustomWeather, © 2015

See weather overviewHow to use our weather pages